Location: Auckland
(36.8670°S, 174.7670°E)
Time: 08:59:27
(UTC+12:00)

Tiangong 2 - Pass Details

Date: 19 June 2019
Orbit: 378 x 386 km, 42.8° (Epoch: 17 July)

Event Time Altitude Azimuth Distance (km) Brightness Sun altitude
Rises 18:08:46 0° 317° (NW) 2,250 6.2 -11.3°
Reaches altitude 10° 18:10:56 10° 326° (NNW) 1,401 4.8 -11.7°
Maximum altitude 18:13:49 33° 33° (NNE) 665 2.1 -12.2°
Enters shadow 18:15:27 20° 85° (E) 960 2.5 -12.5°
